COSMOS 1598

导读 | 星芒AI

COSMOS 1598 是一颗由苏联(现俄罗斯)于1984年12月20日发射的军用侦察卫星,属于“Tsel-3”系列。该卫星主要用于光学成像,支持战略情报收集任务。其轨道高度约400公里,倾角为98.7度,属于近地轨道。COSMOS 1598 在轨运行一段时间后失联,最终再入大气层。该卫星体现了冷战时期苏联在空间侦察领域的技术能力,是其军事航天计划的重要组成部分。

基本信息
目录编号:
15292
目录名称:
COSMOS 1598
国际标识:
1984-100A
轨道中心:
EARTH
卫星名称:
COSMOS 1598
卫星全名:
--
卫星状态:
在轨 (已飞行15021 天)
发射日期:
1984-09-13 UTC
国别 :
俄罗斯(独联体) (CIS)
星等 :
--
轨道信息
数据来源 国际轨道数据 AOE轨道数据
星历时间 2025-10-28T21:59:18+0800
17小时前
查看轨道信息
2025-10-29T09:00:00+0800
5小时前
查看轨道信息
半长轴 7366.346km 7366.347km
偏心率 0.0031336 0.0031386
轨道倾角 82.947° 82.945°
近地点辐角 314.782° 313.581°
升交点赤经 343.571° 343.234°
平近点角 197.812° 305.860°
近地点 965.127km 965.091km
远地点 1011.295km 1011.333km
周期 104.867分钟 104.867分钟
每日圈数 13.73171 13.731708
详细信息
使用方式:
暂无
2D轨道图
3D轨道图
轨道高度分析图
轨道倾角分析图
轨道综合分析图
查看轨道综合分析图